Frisco, NC

5:11 PM EST on December 08, 2016 (GMT -0500)
Mitchell

Weather History for KHSE - May, 2013

Change the Weather History Date:

Friday, May 31, 2013

  Actual Average Record
Temperature  
Mean Temperature 77 °F 66 °F  
Max Temperature 84 °F 73 °F 91 °F (1988)
Min Temperature 70 °F 60 °F 44 °F (1961)
Degree Days  
Heating Degree Days 0 2  
Month to date heating degree days 27 32  
Since 1 July heating degree days 2420 2566  
Cooling Degree Days 12 3  
Month to date cooling degree days 153 30  
Year to date cooling degree days 162 58  
Growing Degree Days 28 (Base 50)    
Moisture  
Dew Point 69 °F    
Average Humidity 76    
Maximum Humidity 90    
Minimum Humidity 61    
Precipitation  
Precipitation 0.00 in 0.12 in 3.39 in (1933)
Month to date precipitation 3.37 1.53  
Year to date precipitation 19.19 19.20  
Snow  
Snow 0.00 in - - ()
Month to date snowfall 0.0  
Since 1 July snowfall 0.0  
Snow Depth 0.00 in    
Sea Level Pressure  
Sea Level Pressure 30.22 in    
Wind  
Wind Speed 6 mph (SW)    
Max Wind Speed 10 mph    
Max Gust Speed 13 mph    
Visibility 10 miles    
Events      
T = Trace of Precipitation, MM = Missing Value Source: NWS Daily Summary

Daily Weather History Graph

Daily Weather History Graph

Search for Another Location

Airport or City:

Trip Planner

Search our weather history database for the weather conditions in past years. The results will help you decide how hot, cold, wet, or windy it might be!

Date:

Astronomy

May. 31, 2013 Rise Set
Actual Time 5:49 AM EDT 8:11 PM EDT
Civil Twilight 5:20 AM EDT 8:40 PM EDT
Nautical Twilight 4:44 AM EDT 9:16 PM EDT
Astronomical Twilight 4:04 AM EDT 9:56 PM EDT
Moon 12:55 AM EDT (5/31) 12:50 PM EDT (5/31)
Length of Visible Light 15h 20m
Length of Day
14h 21m
Waning Gibbous, 51% of the Moon is Illuminated
May 31
Waning Gibbous
May 31
Last Quarter
Jun 8
New
Jun 16
First Quarter
Jun 23
Full

Hourly Weather History & Observations

Time (EDT) Temp. Heat Index Dew Point Humidity Pressure Visibility Wind Dir Wind Speed Gust Speed Precip Events Conditions
12:51 AM 75.0 °F - 69.1 °F 82% 30.22 in 10.0 mi SSW 8.1 mph - N/A   Clear
1:51 AM 75.0 °F - 68.0 °F 79% 30.22 in 10.0 mi SSW 9.2 mph - N/A   Clear
2:51 AM 73.9 °F - 68.0 °F 82% 30.21 in 10.0 mi SW 6.9 mph - N/A   Clear
3:51 AM 73.0 °F - 69.1 °F 87% 30.22 in 10.0 mi SW 5.8 mph - N/A   Clear
4:51 AM 72.0 °F - 68.0 °F 87% 30.23 in 10.0 mi WSW 3.5 mph - N/A   Clear
5:51 AM 72.0 °F - 68.0 °F 87% 30.25 in 10.0 mi West 4.6 mph - N/A   Partly Cloudy
6:51 AM 75.0 °F - 69.1 °F 82% 30.26 in 10.0 mi Calm Calm - N/A   Partly Cloudy
7:30 AM 77.0 °F - 69.8 °F 78% 30.27 in 10.0 mi WSW 3.5 mph - N/A   Mostly Cloudy
7:41 AM 77.0 °F - 69.8 °F 78% 30.27 in 10.0 mi Calm Calm - N/A   Scattered Clouds
7:51 AM 78.1 °F - 70.0 °F 76% 30.27 in 10.0 mi West 4.6 mph - N/A   Partly Cloudy
8:51 AM 79.0 °F - 69.1 °F 72% 30.27 in 10.0 mi WNW 3.5 mph - N/A   Clear
9:51 AM 80.1 °F 83.2 °F 70.0 °F 71% 30.26 in 10.0 mi SSW 4.6 mph - N/A   Clear
10:51 AM 79.0 °F - 70.0 °F 74% 30.27 in 10.0 mi South 4.6 mph - N/A   Clear
11:51 AM 79.0 °F - 69.1 °F 72% 30.27 in 10.0 mi South 6.9 mph - N/A   Clear
12:51 PM 81.0 °F 84.1 °F 69.1 °F 67% 30.26 in 10.0 mi South 5.8 mph - N/A   Clear
1:51 PM 82.0 °F 85.5 °F 69.1 °F 65% 30.24 in 10.0 mi South 5.8 mph - N/A   Clear
2:51 PM 84.0 °F 87.8 °F 69.1 °F 61% 30.23 in 10.0 mi South 8.1 mph - N/A   Clear
3:51 PM 84.0 °F 87.8 °F 69.1 °F 61% 30.21 in 10.0 mi South 6.9 mph - N/A   Clear
4:51 PM 81.0 °F 84.1 °F 69.1 °F 67% 30.19 in 10.0 mi SSW 8.1 mph - N/A   Clear
5:51 PM 81.0 °F 84.1 °F 69.1 °F 67% 30.18 in 10.0 mi South 5.8 mph - N/A   Clear
6:51 PM 79.0 °F - 69.1 °F 72% 30.17 in 10.0 mi South 5.8 mph - N/A   Clear
7:51 PM 77.0 °F - 69.1 °F 76% 30.17 in 10.0 mi SSW 8.1 mph - N/A   Clear
8:51 PM 75.9 °F - 70.0 °F 82% 30.17 in 10.0 mi SSW 6.9 mph - N/A   Clear
9:51 PM 75.9 °F - 70.0 °F 82% 30.18 in 10.0 mi SSW 8.1 mph - N/A   Clear
10:51 PM 75.9 °F - 70.0 °F 82% 30.18 in 10.0 mi SW 5.8 mph - N/A   Clear
11:51 PM 75.9 °F - 70.0 °F 82% 30.18 in 10.0 mi SW 6.9 mph - N/A   Clear